Volver al catálogo

COSMOS 2601

ActivoMilitarPO
NORAD 67675·PAYLOAD·🇷🇺 Russia

Lanzado Feb 5, 2026 desde Plesetsk Cosmodrome

Loading…

Próximos Pases (próximas 24 horas)

TLE

ActualizadoSource: Space-Track

Época: Sep 14, 2026, 08:47 UTC

1 67675U 26023B   26257.36630833  .00007883  00000-0  30084-3 0  9992
2 67675  96.6146 308.7130 0016830 172.2289 187.9216 15.26747820 33615

Sigue COSMOS 2601 en tiempo real con AllMySat

Download on the App Store